Zurück zum Katalog

STARLINK-5836

AktivKommunikationVLEO
NORAD 56386·PAYLOAD·🇺🇸 United States

Gestartet May 4, 2023 von Cape Canaveral Space Force Station

Loading…

Nächste Überflüge (nächste 24 Stunden)

TLE

AktuellSource: CelesTrak SupGP

Epoche: Sep 14, 2026, 21:39 UTC

1 56386C 23061N   26257.90256944  .00006567  00000+0  23788-3 0  2572
2 56386  42.9993 209.5745 0000748 237.5650 148.1058 15.27570669    11

Verfolge STARLINK-5836 in Echtzeit mit AllMySat

Download on the App Store